SBI642 URRP-URSS

Flight info

Callsign SBI642
Flight time N/A
Altitude FL330
Route AMEPU DONID W79 BINOL
Aircraft B738/M-S/N

Departure

Time 2026-05-01 12:17
Airport Platov International Airport (URRP)

Arrival

Time N/A
Airport Sochi International Airport (URSS)
Time Latitude Longitude Altitude Speed Heading
2026-05-01 11:54 47.48961 39.92809 293 ft 0 kts 144°
2026-05-01 12:00 47.48993 39.92775 293 ft 0 kts 323°
2026-05-01 12:05 47.48995 39.92773 293 ft 2 kts 323°
2026-05-01 12:06 47.49004 39.92763 293 ft 0 kts 323°
2026-05-01 12:06 47.49012 39.92754 293 ft 5 kts 323°
2026-05-01 12:06 47.49022 39.92696 293 ft 8 kts 240°
2026-05-01 12:07 47.48984 39.92620 293 ft 14 kts 233°
2026-05-01 12:07 47.48965 39.92582 293 ft 8 kts 233°
2026-05-01 12:07 47.48925 39.92504 293 ft 9 kts 234°
2026-05-01 12:07 47.48870 39.92389 293 ft 18 kts 234°
2026-05-01 12:08 47.48810 39.92198 293 ft 22 kts 275°
2026-05-01 12:08 47.48881 39.92071 293 ft 16 kts 319°
2026-05-01 12:08 47.48921 39.91928 293 ft 16 kts 247°
2026-05-01 12:08 47.48849 39.91780 293 ft 19 kts 235°
2026-05-01 12:09 47.48753 39.91579 293 ft 29 kts 235°
2026-05-01 12:09 47.48633 39.91339 293 ft 20 kts 234°
2026-05-01 12:09 47.48606 39.91284 293 ft 0 kts 234°
2026-05-01 12:09 47.48606 39.91283 293 ft 0 kts 234°
2026-05-01 12:10 47.48605 39.91283 293 ft 0 kts 234°
2026-05-01 12:13 47.48605 39.91282 293 ft 0 kts 234°
2026-05-01 12:15 47.48597 39.91262 293 ft 8 kts 245°
2026-05-01 12:15 47.48608 39.91188 293 ft 5 kts 316°
2026-05-01 12:15 47.48609 39.91186 293 ft 0 kts 317°
2026-05-01 12:15 47.48615 39.91178 293 ft 3 kts 317°
2026-05-01 12:16 47.48623 39.91169 293 ft 0 kts 324°
2026-05-01 12:16 47.48635 39.91156 293 ft 7 kts 324°
2026-05-01 12:16 47.48682 39.91106 293 ft 10 kts 331°
2026-05-01 12:16 47.48742 39.91126 293 ft 10 kts 58°
2026-05-01 12:17 47.48781 39.91210 293 ft 44 kts 54°
2026-05-01 12:17 47.49201 39.92077 298 ft 161 kts 54°
2026-05-01 12:17 47.49959 39.93690 1336 ft 194 kts 59°
2026-05-01 12:17 47.50285 39.95627 3031 ft 205 kts 86°
2026-05-01 12:18 47.49910 39.97757 3760 ft 229 kts 115°
2026-05-01 12:18 47.48780 39.99522 4291 ft 250 kts 144°
2026-05-01 12:18 47.47085 40.00387 4904 ft 270 kts 173°
2026-05-01 12:18 47.45185 39.99926 6148 ft 292 kts 200°
2026-05-01 12:19 47.43438 39.98233 7469 ft 312 kts 219°
2026-05-01 12:19 47.41741 39.96094 8770 ft 331 kts 218°
2026-05-01 12:19 47.39839 39.94052 10049 ft 346 kts 213°
2026-05-01 12:19 47.37743 39.92191 11320 ft 358 kts 209°
2026-05-01 12:20 47.35604 39.90240 12606 ft 367 kts 212°
2026-05-01 12:20 47.33410 39.88240 13859 ft 375 kts 208°
2026-05-01 12:20 47.31023 39.86643 15048 ft 383 kts 200°
2026-05-01 12:20 47.28442 39.85528 16072 ft 392 kts 193°
2026-05-01 12:21 47.25769 39.84591 17079 ft 400 kts 192°
2026-05-01 12:21 47.23050 39.83645 18082 ft 405 kts 193°
2026-05-01 12:21 47.20297 39.82681 19083 ft 409 kts 193°
2026-05-01 12:21 47.17481 39.82052 20063 ft 411 kts 182°
2026-05-01 12:22 47.14635 39.81970 21085 ft 411 kts 180°
2026-05-01 12:22 47.11770 39.81791 21916 ft 416 kts 182°
2026-05-01 12:22 47.08873 39.81530 22668 ft 420 kts 183°
2026-05-01 12:22 47.05946 39.81266 23419 ft 424 kts 182°
2026-05-01 12:23 47.02993 39.81003 24091 ft 429 kts 182°
2026-05-01 12:23 47.00001 39.80737 24694 ft 434 kts 182°
2026-05-01 12:23 46.96974 39.80468 25297 ft 439 kts 182°
2026-05-01 12:23 46.93922 39.80197 25899 ft 442 kts 182°
2026-05-01 12:24 46.90843 39.79925 26499 ft 445 kts 182°
2026-05-01 12:24 46.87753 39.79651 27098 ft 447 kts 182°
2026-05-01 12:24 46.84647 39.79377 27671 ft 449 kts 182°
2026-05-01 12:24 46.81523 39.79101 28169 ft 452 kts 182°
2026-05-01 12:25 46.78380 39.78824 28670 ft 455 kts 182°
2026-05-01 12:25 46.72054 39.78267 29603 ft 459 kts 182°
2026-05-01 12:25 46.68860 39.77986 30003 ft 462 kts 182°
2026-05-01 12:26 46.65651 39.77705 30403 ft 464 kts 182°
2026-05-01 12:26 46.59199 39.77140 31201 ft 466 kts 182°
2026-05-01 12:26 46.55963 39.76857 31598 ft 467 kts 182°
2026-05-01 12:27 46.52726 39.76574 31997 ft 467 kts 182°
2026-05-01 12:27 46.46248 39.76009 32790 ft 467 kts 182°
2026-05-01 12:28 46.39706 39.75440 32997 ft 481 kts 182°
2026-05-01 12:28 46.36345 39.75148 33001 ft 489 kts 182°
2026-05-01 12:28 46.29440 39.74659 32999 ft 506 kts 182°
2026-05-01 12:29 46.25902 39.74415 32997 ft 514 kts 182°
2026-05-01 12:29 46.15036 39.73664 32996 ft 528 kts 182°
2026-05-01 12:30 46.04049 39.72907 32993 ft 528 kts 182°
2026-05-01 12:31 45.96727 39.72405 32994 ft 528 kts 182°
2026-05-01 12:31 45.89404 39.71903 32994 ft 528 kts 182°
2026-05-01 12:32 45.82081 39.71404 32994 ft 528 kts 182°
2026-05-01 12:32 45.71095 39.70658 32993 ft 528 kts 182°
2026-05-01 12:33 45.63770 39.70163 32993 ft 528 kts 182°
2026-05-01 12:33 45.56447 39.69669 32994 ft 528 kts 182°
2026-05-01 12:34 45.49127 39.69171 32994 ft 528 kts 182°
2026-05-01 12:34 45.41798 39.68667 32993 ft 528 kts 182°
2026-05-01 12:35 45.34479 39.68166 32993 ft 528 kts 182°
2026-05-01 12:35 45.27155 39.67666 32994 ft 528 kts 182°
2026-05-01 12:36 45.19854 39.67557 32985 ft 520 kts 173°
2026-05-01 12:36 45.16334 39.68345 32992 ft 508 kts 169°
2026-05-01 12:36 45.12882 39.69107 32918 ft 498 kts 171°
2026-05-01 12:37 45.09471 39.69778 32455 ft 494 kts 171°
2026-05-01 12:37 45.06086 39.70445 31912 ft 490 kts 171°
2026-05-01 12:37 45.02731 39.71109 31365 ft 486 kts 171°
2026-05-01 12:37 44.99404 39.71768 30818 ft 482 kts 171°
2026-05-01 12:38 44.96104 39.72421 30271 ft 478 kts 171°
2026-05-01 12:38 44.92832 39.73067 29724 ft 474 kts 171°
2026-05-01 12:38 44.89588 39.73707 29175 ft 470 kts 171°
2026-05-01 12:38 44.86375 39.74340 28627 ft 465 kts 171°
2026-05-01 12:39 44.83188 39.74968 28079 ft 461 kts 171°
2026-05-01 12:39 44.80023 39.75590 27531 ft 460 kts 171°
2026-05-01 12:39 44.76853 39.76213 26986 ft 462 kts 171°
2026-05-01 12:39 44.73676 39.76836 26443 ft 463 kts 171°
2026-05-01 12:40 44.70490 39.77461 25897 ft 464 kts 171°
2026-05-01 12:40 44.67294 39.78087 25351 ft 465 kts 171°
2026-05-01 12:40 44.64096 39.78712 24806 ft 465 kts 171°
2026-05-01 12:40 44.60893 39.79338 24262 ft 466 kts 171°
2026-05-01 12:41 44.57688 39.79963 23718 ft 466 kts 171°
2026-05-01 12:41 44.54479 39.80589 23174 ft 467 kts 171°
2026-05-01 12:41 44.51272 39.81213 22630 ft 467 kts 171°
2026-05-01 12:41 44.48064 39.81837 22086 ft 466 kts 171°
2026-05-01 12:42 44.44854 39.82461 21540 ft 466 kts 171°
2026-05-01 12:42 44.41650 39.83083 20995 ft 466 kts 171°
2026-05-01 12:42 44.38453 39.83702 20451 ft 465 kts 171°
2026-05-01 12:42 44.35274 39.84442 19881 ft 464 kts 166°
2026-05-01 12:43 44.32229 39.85763 19371 ft 462 kts 161°
2026-05-01 12:43 44.29178 39.87087 18815 ft 451 kts 163°
2026-05-01 12:43 44.26203 39.88268 18263 ft 440 kts 163°
2026-05-01 12:43 44.23304 39.89413 17710 ft 429 kts 163°
2026-05-01 12:44 44.20474 39.90533 17157 ft 418 kts 163°
2026-05-01 12:44 44.17716 39.91624 16604 ft 408 kts 163°
2026-05-01 12:44 44.12438 39.93711 15983 ft 375 kts 163°
2026-05-01 12:45 44.07748 39.95562 15977 ft 327 kts 163°
2026-05-01 12:45 44.05620 39.96401 15982 ft 315 kts 163°
2026-05-01 12:45 44.03530 39.97224 15989 ft 311 kts 163°
2026-05-01 12:46 44.01457 39.98040 15993 ft 310 kts 163°
2026-05-01 12:46 43.99383 39.98856 15994 ft 310 kts 163°